Overview Statistics Trail Chart Weather Telemetry Raw packets
 

This is the latest recevied weather packets stored in our database for station/object N6GPM. If no packets are shown the sender has not sent any weather packets the latest 10 day(s).

<< 77 78 79 80 81 82 83 >>
Time Temp. Humidity Pressure Rain* Wind** Luminosity Snow
1788123307 33.89° C 33% 1016.2 hPa 0 mm - 920 W/m² -
1788123003 33.33° C 29% 1016.4 hPa 0 mm - 930 W/m² -
1788122701 34.44° C 30% 1016.4 hPa 0 mm - 943 W/m² -
1788122396 33.89° C 31% 1016.3 hPa 0 mm - 951 W/m² -
1788122092 33.33° C 30% 1016.2 hPa 0 mm - 969 W/m² -
1788121792 33.33° C 32% 1016.3 hPa 0 mm - 971 W/m² -
1788121486 33.33° C 31% 1016.5 hPa 0 mm - 972 W/m² -
1788121183 33.89° C 31% 1016.3 hPa 0 mm - 974 W/m² -
1788120881 33.33° C 32% 1016.3 hPa 0 mm - 984 W/m² -
1788120577 33.89° C 33% 1016.5 hPa 0 mm - 985 W/m² -
1788120277 33.89° C 31% 1016.4 hPa 0 mm - 989 W/m² -
1788119972 33.89° C 33% 1016.5 hPa 0 mm - 989 W/m² -
1788119667 33.89° C 33% 1016.5 hPa 0 mm - 993 W/m² -
1788119365 34.44° C 32% 1016.7 hPa 0 mm - 992 W/m² -
1788119065 33.89° C 32% 1016.7 hPa 0 mm - 991 W/m² -
1788118764 33.89° C 33% 1016.6 hPa 0 mm - 992 W/m² -
1788118463 32.78° C 34% 1016.7 hPa 0 mm - 990 W/m² -
1788118159 33.33° C 34% 1016.6 hPa 0 mm - 993 W/m² -
1788117854 32.78° C 34% 1016.6 hPa 0 mm - 990 W/m² -
1788117549 32.78° C 34% 1016.5 hPa 0 mm - 982 W/m² -
1788117249 33.33° C 34% 1016.7 hPa 0 mm - 980 W/m² -
1788116956 33.33° C 32% 1016.8 hPa 0 mm - 978 W/m² -
1788116640 32.78° C 32% 1017 hPa 0 mm - 974 W/m² -
1788116339 32.78° C 33% 1016.9 hPa 0 mm - 969 W/m² -
1788116034 32.22° C 34% 1016.7 hPa 0 mm - 964 W/m² -

* Rain latest hour (hover to see other rain measurements)
** Current wind speed in m/s (hover to see current wind gust speed)